Content
SEND FEEDBACK

Daily
Averages
Monthly
Summary
Philippines

QUEZON CITY, PHILIPPINES


Home > Asia > Philippines
Elevation: 46 meters     Latitude: 14 39N     Longitude: 121 03E

WEATHER
 
SELECT A DAY
Number of Records: 172,756;   Date Range: 7/1/96 - 9/18/14
 
SHARE

PRINT THIS DATA

[ ← Previous Day ]
WEATHER ALMANAC - 26 JUNE, 2013
[ Next Day → ]
[ °F ]   °C
We're sorry. There is no daily almanac available for Quezon City, Philippines on 26 June, 2013.
WEATHER BY HOUR - 26 JUNE, 2013
[ °F ]   °C
Local TimeTemperatureDewpointHumidityBarometerVisibilityWind DirectionWind SpeedGust SpeedPrecipitationEventsConditions
1:00 AM29 °C25 °C79 %1011.2 hPa10 kmSE (140°)9.3 km/hPartly Cloudy
2:00 AM28.9 °C23.9 °C69 %1011.2 hPa9.7 kmESE (110°)10.8 km/hHaze
2:00 AM29 °C24 °C74 %1011.2 hPa10 kmESE (110°)11.1 km/hPartly Cloudy
3:00 AM28 °C24 °C79 %1010.2 hPa10 kmESE (110°)9.3 km/hPartly Cloudy
4:00 AM28 °C23 °C74 %1010.2 hPa10 kmEast (100°)9.3 km/hPartly Cloudy
5:00 AM27.8 °C23.3 °C72 %1010.2 hPa9.7 kmSE (130°)7.2 km/hScattered Clouds
5:00 AM-17.8 °C-17.8 °C1010.2 hPa10 kmVariable7.4 km/hScattered Clouds
6:00 AM27 °C23 °C79 %1011.2 hPa10 kmEast (80°)3.7 km/hMostly Cloudy
7:00 AM29 °C23 °C70 %1012.2 hPa10 kmENE (60°)7.4 km/hMostly Cloudy
8:00 AM29.4 °C23.3 °C62 %1011.9 hPa9.7 kmSW (220°)3.5 km/hScattered Clouds
8:00 AM30 °C23 °C66 %1011.2 hPa10 kmVariable1.9 km/hMostly Cloudy
9:00 AM32 °C23 °C59 %1011.2 hPa10 kmVariable3.7 km/hMostly Cloudy
10:00 AM31 °C24 °C66 %1011.2 hPa10 kmWest (260°)14.8 km/hMostly Cloudy
11:00 AM31.1 °C23.9 °C57 %1011.2 hPa9.7 kmWest (280°)10.8 km/hPartly Cloudy
11:00 AM31 °C24 °C66 %1010.2 hPa10 kmWest (280°)11.1 km/hOvercast
12:00 PM31 °C25 °C70 %1010.2 hPa10 kmWest (280°)13 km/hOvercast
1:00 PM32 °C24 °C62 %1009.1 hPa10 kmWest (270°)9.3 km/hOvercast
2:00 PM32.2 °C23.3 °C51 %1009.1 hPa9.7 kmWSW (250°)10.8 km/hHaze
2:00 PM33 °C24 °C59 %1009.1 hPa10 kmWSW (250°)11.1 km/hMostly Cloudy
3:00 PM32 °C23 °C59 %1008.1 hPa10 kmWSW (250°)7.4 km/hMostly Cloudy
4:00 PM33 °C22 °C52 %1008.1 hPa10 kmSSE (160°)7.4 km/hMostly Cloudy
5:00 PM32.8 °C21.1 °C41 %1008.5 hPa9.7 kmSE (130°)7.2 km/hHaze
5:00 PM33 °C21 °C49 %1008.1 hPa10 kmSE (130°)9.3 km/hMostly Cloudy
6:00 PM32 °C21 °C52 %1008.1 hPa10 kmSE (130°)5.6 km/hMostly Cloudy
7:00 PM31 °C23 °C62 %1009.1 hPa10 kmSSE (160°)5.6 km/hMostly Cloudy
8:00 PM30 °C25 °C69 %1010.2 hPa9.7 kmSW (230°)10.8 km/hHaze
8:00 PM30 °C25 °C74 %1010.2 hPa10 kmSW (230°)11.1 km/hScattered Clouds
9:00 PM30 °C25 °C74 %1010.2 hPa10 kmSW (220°)7.4 km/hScattered Clouds
10:00 PM30 °C25 °C74 %1011.2 hPa10 kmESE (120°)3.7 km/hScattered Clouds
11:00 PM30 °C24.4 °C66 %1011.5 hPa9.7 kmESE (120°)7.2 km/hHaze
11:00 PM30 °C25 °C74 %1011.2 hPa10 kmVariable7.4 km/hMostly Cloudy
Hourly data recorded from RPLL, located 0 kilometers away from Quezon City, Philippines







STORIES FROM OUR PARTNERS